Wind_Speed
52 50 48 46 42 42 36 43 43 37 40 46 56 64 63 67 75 74 69 74 72 73 70 70 69 62 59 56 51 45 44 39 42 39 35 32 31 30 31 31 30 29 28 28 28 29 31 31 32
52 53 50 49 54 54 52 45 40 29 30 43 50 57 62 61 71 74 76 75 71 71 72 69 68 65 63 57 57 50 47 44 43 42 37 36 34 35 32 33 33 30 26 30 30 32 31 30 30
52 54 53 56 62 54 54 42 37 26 32 35 44 55 56 57 65 73 75 81 70 72 69 72 68 65 62 63 58 54 51 45 49 43 45 37 36 39 37 34 34 34 30 28 31 35 33 29 30
55 56 56 61 64 62 51 39 38 33 33 34 38 52 50 51 56 66 75 81 83 72 72 72 72 64 63 65 60 58 53 52 47 43 46 42 44 44 43 40 32 36 34 33 34 36 34 30 33
56 58 59 60 64 49 43 37 33 27 29 28 38 46 48 51 48 61 74 80 88 81 76 76 70 67 62 67 65 60 58 54 51 43 47 44 46 48 46 44 38 37 40 39 38 39 40 38 39
56 54 55 57 56 43 40 45 41 27 26 28 31 39 44 48 50 54 67 77 84 86 74 77 78 75 71 69 67 60 59 58 58 57 52 50 51 50 48 46 46 43 42 44 46 45 41 41 42
45 47 48 44 48 41 42 42 43 39 28 30 33 36 39 47 57 51 59 70 80 85 83 74 80 73 76 78 66 65 60 63 59 58 58 52 55 51 49 52 49 45 43 45 47 49 48 44 43
45 46 47 44 38 40 41 41 40 40 37 28 33 35 39 42 52 56 59 61 67 73 81 74 82 81 79 76 69 66 69 67 64 60 56 61 59 57 54 53 49 48 51 53 50 52 52 51 48
44 42 43 41 36 36 37 39 41 40 39 34 29 36 37 39 47 57 63 63 67 71 77 87 77 82 82 79 73 67 69 69 68 60 54 60 60 61 62 62 60 57 58 58 57 54 55 57 53
45 41 39 38 38 41 40 40 40 43 41 36 32 33 38 38 41 51 64 72 72 77 79 80 86 78 81 84 75 74 69 64 67 66 62 57 65 65 65 64 65 65 64 62 63 60 58 58 58
37 35 38 41 40 37 37 42 44 43 42 38 35 34 35 37 36 45 56 69 78 75 79 82 82 82 84 86 85 81 70 70 63 66 66 64 74 84 75 68 68 68 65 68 67 65 65 64 64
39 31 35 35 41 41 43 42 46 46 45 43 38 36 37 36 37 40 48 52 76 81 79 84 88 84 76 88 89 87 83 82 67 62 53 46 47 62 78 75 77 76 73 71 73 70 69 68 68
48 41 37 34 41 48 50 45 46 48 49 46 42 38 36 34 32 38 44 51 61 82 82 84 88 91 85 89 90 90 87 91 86 66 61 59 60 71 67 69 76 75 77 77 76 75 75 74 72
51 46 40 40 44 54 50 46 47 49 51 49 47 43 39 35 34 35 41 48 50 68 85 85 87 92 93 90 89 87 87 87 86 80 66 63 64 64 66 65 64 67 71 77 78 80 82 76 73
45 43 43 45 49 55 52 50 48 52 51 53 53 47 41 40 35 36 37 43 51 52 74 87 86 90 93 94 92 93 89 87 83 83 80 74 70 73 59 66 62 69 76 77 77 76 76 79 79
48 44 43 47 53 60 55 57 51 54 59 59 58 54 46 41 38 36 38 40 46 54 60 79 87 89 94 94 95 93 94 91 92 89 87 86 72 70 67 69 68 76 69 69 73 82 81 77 78
53 51 49 49 55 62 59 60 57 60 64 63 62 59 52 41 40 34 38 42 43 49 54 67 82 87 92 96 95 95 97 95 94 95 95 90 83 77 74 74 69 72 70 68 70 71 79 81 77
61 58 55 55 58 62 69 66 66 68 63 69 63 62 55 44 39 39 34 40 43 44 51 55 70 83 88 99 99 96 98 99 92 95 95 92 92 83 77 76 73 71 64 64 67 74 74 77 79
61 58 58 61 66 69 70 69 71 73 70 69 67 62 55 47 37 38 34 34 40 41 46 53 61 72 86 94 104 99 97 99 91 90 95 99 97 90 82 86 75 70 68 71 68 70 71 76 76
68 63 64 65 69 76 79 73 78 77 76 71 67 60 55 47 39 36 35 30 33 39 40 51 58 68 81 92 102 107 104 102 101 94 94 97 96 95 89 89 81 75 78 73 71 71 72 74 69
74 69 71 69 73 79 84 76 82 81 81 76 68 62 57 50 43 38 35 32 31 35 40 45 57 66 79 91 100 107 108 106 104 103 100 99 100 98 95 92 85 80 77 77 77 74 74 76 74
73 76 76 76 78 81 91 79 84 87 80 74 67 64 59 53 47 42 39 36 32 33 36 42 48 64 77 90 101 108 113 111 108 108 104 101 105 106 101 100 92 87 81 81 80 81 80 77 75
80 81 79 81 84 87 95 96 91 89 79 72 67 63 61 56 50 46 43 42 40 36 37 41 48 56 73 90 99 107 113 116 111 113 114 107 107 106 106 103 98 92 88 89 86 86 85 84 77
85 87 87 87 90 91 97 101 98 91 80 74 64 65 61 59 56 51 47 46 45 43 42 42 45 54 65 81 102 109 116 117 119 114 114 113 111 108 112 108 107 100 95 93 92 90 88 88 84
91 93 93 91 95 97 101 105 101 91 82 76 67 65 64 60 59 56 52 50 48 47 48 46 47 52 60 74 94 111 115 121 121 123 117 115 115 109 113 110 110 110 101 98 92 93 89 91 90
93 96 99 101 102 104 109 112 98 86 83 76 72 70 70 66 64 61 59 55 53 53 53 53 51 53 63 66 85 106 118 121 125 124 125 118 118 113 118 115 115 107 109 104 99 94 89 89 87
99 99 102 108 110 115 118 103 95 87 82 78 74 72 70 71 69 64 61 64 65 65 64 62 61 59 64 71 75 92 114 123 127 129 129 127 121 117 115 118 118 118 113 113 109 102 96 88 85
105 104 110 113 121 127 118 96 94 93 86 83 82 81 81 84 80 75 73 70 69 71 68 68 64 62 66 75 77 86 98 119 128 132 132 132 130 127 125 122 118 121 117 115 111 105 103 98 97
105 109 114 119 129 141 115 91 91 95 96 92 91 89 89 87 82 75 70 66 68 68 68 69 69 67 68 73 80 83 94 106 125 133 135 136 136 133 130 130 124 125 125 120 120 118 109 104 101
107 117 126 133 135 117 112 89 97 101 100 100 97 94 79 68 66 66 63 63 64 66 67 70 70 69 71 75 79 84 89 97 109 131 138 140 138 138 137 134 133 130 126 124 125 122 118 114 107
Wind_Direction
317 317 318 315 321 323 332 310 309 282 250 250 252 247 239 229 226 219 215 217 223 227 228 232 234 234 233 234 228 226 237 239 239 234 232 235 243 246 242 245 246 253 258 257 258 261 263 259 259
319 316 314 317 325 320 331 315 315 289 260 246 252 253 247 232 226 220 221 212 216 224 230 231 233 235 237 231 228 229 225 237 233 234 230 234 242 246 245 245 244 246 248 254 258 259 257 258 257
320 316 310 312 318 324 328 322 318 280 270 260 253 252 252 240 233 222 225 213 213 220 226 230 233 232 231 228 228 231 226 226 236 229 240 239 245 243 238 240 243 245 248 247 252 258 246 247 252
324 312 310 315 315 319 321 321 312 299 274 261 251 248 253 253 241 228 225 224 215 217 219 223 228 226 226 227 227 229 228 226 227 236 233 244 247 249 238 235 239 246 240 243 245 251 250 249 252
320 317 314 311 312 321 322 322 322 304 284 265 247 246 248 253 243 231 228 225 222 216 219 218 219 223 222 230 228 231 231 226 228 234 237 248 248 246 236 234 236 240 243 242 246 249 254 257 258
318 310 311 310 318 318 323 323 326 313 306 275 256 250 246 240 247 238 228 224 226 223 217 220 221 224 224 227 229 230 234 234 232 238 243 247 251 248 238 234 239 240 239 246 253 257 257 258 259
316 306 312 326 326 321 325 323 324 322 324 285 266 252 244 239 241 239 230 226 225 226 220 222 223 221 227 231 234 237 238 239 239 240 241 242 248 246 243 239 240 241 243 250 255 258 261 260 260
315 308 315 317 323 326 326 326 323 319 318 312 270 257 251 244 238 232 231 226 225 228 228 219 221 217 220 228 225 231 234 240 237 239 242 244 244 245 246 242 240 243 252 257 255 257 259 259 260
311 319 331 318 319 326 330 331 327 322 319 316 285 266 259 251 242 233 228 224 221 222 224 222 219 220 220 224 222 225 233 235 235 236 240 241 241 243 245 247 251 255 260 261 259 258 259 260 260
315 312 323 327 319 324 330 332 331 327 320 313 309 273 270 265 245 240 230 223 222 219 218 221 220 215 216 218 216 221 224 229 231 235 237 241 242 243 246 248 250 254 255 257 258 258 258 259 259
318 320 339 337 321 321 328 329 334 332 324 318 307 295 276 276 258 242 237 227 223 221 219 218 220 217 214 215 215 219 218 219 222 230 233 243 256 252 248 250 251 251 251 251 250 253 255 255 258
321 331 341 332 336 326 325 327 328 333 332 327 311 296 285 275 268 250 241 236 224 225 219 219 217 218 216 214 215 217 219 221 219 223 228 235 248 253 249 254 252 253 248 249 249 250 253 256 257
316 323 336 332 339 341 333 320 323 329 332 332 323 302 288 279 274 263 246 240 229 226 222 220 219 219 216 212 215 216 220 224 225 217 217 218 232 249 247 252 251 248 251 251 251 251 251 253 255
311 315 332 337 341 341 332 322 320 322 326 329 328 320 296 286 270 265 257 245 237 228 227 223 221 218 218 216 214 214 216 221 224 221 211 215 223 232 245 244 249 249 251 251 250 251 253 253 254
316 318 327 334 340 338 341 323 325 320 322 323 326 325 309 288 279 257 257 251 244 233 226 228 222 221 220 219 215 215 217 220 218 216 219 216 221 232 240 247 252 251 253 254 252 250 252 253 255
318 322 328 336 340 339 334 330 330 325 324 323 323 325 317 295 283 264 251 251 245 240 229 225 225 221 221 220 218 216 215 218 220 220 217 221 223 225 237 244 250 246 248 250 251 251 250 253 252
322 324 329 334 339 337 334 328 327 324 324 321 320 319 317 306 285 273 253 249 245 243 238 228 226 223 220 218 221 217 216 217 220 220 221 222 222 229 233 237 243 246 250 247 247 250 251 251 253
317 317 322 334 337 335 333 328 324 323 321 320 318 314 315 309 290 276 262 249 247 244 240 231 224 225 220 221 219 218 216 215 216 222 219 222 220 228 229 234 241 241 242 247 250 252 252 252 254
315 316 321 330 332 337 333 328 324 322 320 318 316 314 310 307 293 277 272 257 244 243 239 233 224 225 221 220 217 217 215 213 214 217 221 222 223 225 226 231 235 237 241 246 245 249 248 251 254
314 315 319 327 331 332 331 327 323 320 319 316 314 311 308 302 293 277 270 263 247 241 241 236 227 220 217 217 219 216 217 215 216 214 218 221 220 222 226 231 229 236 241 242 243 248 252 253 251
317 317 320 322 325 327 328 326 324 318 317 314 312 309 306 302 293 279 268 263 257 243 237 242 234 223 220 216 218 218 215 217 214 219 218 220 219 222 224 229 230 234 238 239 243 247 251 256 260
320 319 321 321 323 327 323 330 325 317 316 309 308 306 303 298 291 283 271 264 257 250 245 237 241 229 222 217 216 218 217 216 217 216 220 222 222 222 224 226 229 233 234 238 242 247 251 254 258
317 317 320 319 321 326 320 325 325 316 313 307 305 302 300 296 291 285 273 265 262 255 247 241 235 238 226 221 218 216 218 217 218 218 219 222 221 222 223 225 229 231 234 235 240 247 251 254 256
316 317 317 318 321 323 323 321 322 316 311 306 304 296 295 291 289 282 274 269 264 261 254 245 240 232 235 226 219 217 217 218 219 218 219 222 221 219 223 226 229 230 234 238 240 246 249 251 254
316 316 316 318 319 320 321 320 319 314 311 306 302 294 291 289 287 282 277 272 268 266 260 253 243 241 232 231 224 219 217 219 219 221 221 221 221 222 223 225 228 230 233 236 241 243 246 250 253
315 315 313 317 317 319 320 320 317 313 309 305 299 295 292 290 287 283 278 274 270 269 265 258 252 243 237 232 227 223 219 218 220 221 223 221 222 223 223 226 229 232 234 236 238 242 245 247 251
313 314 314 315 316 317 319 319 316 311 306 302 299 296 294 292 289 281 275 275 273 268 265 258 252 248 236 230 231 226 223 220 220 220 223 225 222 223 224 226 227 230 234 237 237 239 242 244 249
312 314 315 314 316 317 320 320 317 310 306 303 301 297 294 291 289 283 278 275 271 264 257 252 250 246 237 231 228 228 224 223 222 221 223 224 226 225 226 228 229 230 232 235 236 239 241 244 248
312 314 314 313 317 319 318 320 312 305 305 302 298 296 295 292 288 283 275 270 268 258 255 248 245 242 237 231 228 228 227 224 224 223 223 224 226 227 227 230 230 231 232 235 237 238 239 241 242
314 316 317 317 319 319 312 322 307 306 303 300 300 299 296 290 284 277 272 268 259 256 249 244 241 239 236 231 228 229 230 227 226 225 225 225 226 227 228 230 231 232 233 234 236 237 238 241 242
Height
10687 10682 10677 10674 10672 10669 10669 10663 10658 10655 10653 10652 10656 10661 10666 10678 10689 10709 10720 10717 10720 10728 10733 10740 10749 10758 10765 10773 10779 10784 10788 10791 10794 10798 10801 10803 10805 10807 10808 10810 10811 10813 10814 10814 10815 10816 10817 10818 10820
10680 10675 10669 10666 10662 10658 10658 10650 10648 10644 10644 10645 10645 10648 10654 10668 10679 10695 10695 10703 10714 10719 10725 10732 10739 10748 10758 10765 10771 10777 10781 10785 10787 10792 10794 10796 10799 10801 10804 10805 10807 10808 10809 10809 10809 10809 10810 10813 10814
10674 10668 10663 10657 10653 10650 10648 10641 10638 10636 10635 10635 10636 10635 10644 10655 10662 10680 10684 10694 10702 10707 10715 10719 10727 10736 10745 10753 10762 10769 10773 10776 10780 10784 10787 10790 10793 10796 10798 10799 10802 10803 10804 10804 10803 10801 10804 10806 10808
10667 10660 10654 10649 10644 10644 10636 10634 10631 10626 10624 10624 10626 10626 10635 10638 10649 10663 10665 10677 10691 10697 10702 10708 10714 10724 10734 10744 10752 10758 10765 10770 10774 10778 10781 10785 10787 10789 10791 10793 10795 10796 10796 10798 10796 10796 10798 10801 10802
10660 10653 10647 10642 10639 10635 10630 10626 10623 10619 10616 10614 10612 10614 10624 10627 10634 10642 10650 10661 10672 10685 10689 10695 10706 10715 10724 10733 10743 10751 10758 10764 10769 10772 10776 10779 10779 10781 10784 10787 10789 10788 10789 10790 10791 10791 10792 10795 10797
10652 10646 10640 10635 10633 10629 10624 10618 10614 10611 10608 10606 10604 10607 10614 10617 10620 10628 10636 10647 10657 10666 10680 10689 10700 10708 10713 10720 10733 10745 10752 10758 10761 10766 10769 10772 10773 10775 10778 10780 10779 10781 10782 10783 10785 10785 10786 10787 10789
10647 10640 10634 10629 10626 10622 10617 10613 10607 10603 10601 10599 10595 10597 10603 10602 10606 10616 10622 10631 10645 10655 10671 10680 10691 10701 10703 10712 10733 10738 10742 10749 10753 10759 10762 10766 10766 10769 10771 10771 10770 10773 10775 10776 10777 10779 10780 10780 10782
10640 10635 10628 10624 10620 10616 10611 10607 10602 10597 10594 10591 10588 10588 10588 10591 10594 10601 10610 10619 10634 10652 10660 10668 10672 10683 10685 10702 10712 10721 10728 10736 10741 10749 10753 10754 10755 10758 10762 10761 10763 10765 10767 10769 10770 10771 10772 10772 10774
10636 10630 10623 10619 10616 10611 10606 10601 10595 10589 10586 10583 10581 10580 10579 10578 10582 10588 10596 10608 10614 10622 10632 10648 10656 10669 10677 10693 10700 10705 10714 10722 10731 10736 10739 10740 10742 10744 10746 10750 10754 10754 10756 10759 10761 10762 10762 10764 10765
10630 10624 10619 10613 10609 10605 10601 10596 10589 10584 10579 10575 10573 10571 10570 10568 10571 10574 10579 10589 10593 10599 10610 10626 10638 10652 10661 10677 10683 10690 10697 10708 10716 10723 10726 10723 10728 10728 10731 10735 10738 10741 10745 10748 10750 10751 10753 10753 10755
10624 10619 10612 10607 10603 10598 10593 10588 10584 10579 10573 10568 10565 10563 10561 10560 10561 10562 10567 10574 10582 10591 10600 10609 10620 10633 10645 10654 10665 10674 10678 10688 10699 10706 10715 10720 10719 10715 10721 10723 10726 10728 10730 10733 10735 10738 10740 10742 10744
10620 10612 10605 10600 10596 10592 10588 10582 10576 10572 10567 10562 10556 10554 10551 10550 10550 10552 10554 10560 10567 10574 10585 10594 10602 10613 10628 10636 10648 10658 10662 10672 10683 10692 10707 10710 10701 10696 10703 10707 10711 10712 10716 10717 10721 10723 10725 10729 10733
10614 10607 10599 10593 10591 10585 10579 10575 10569 10564 10560 10555 10550 10545 10543 10540 10539 10542 10543 10546 10553 10559 10567 10579 10589 10600 10609 10622 10632 10642 10650 10658 10669 10677 10689 10693 10690 10683 10685 10690 10692 10695 10700 10703 10706 10709 10712 10716 10720
10605 10600 10592 10586 10583 10578 10572 10565 10562 10558 10551 10548 10544 10537 10532 10530 10528 10528 10531 10534 10539 10545 10554 10561 10573 10584 10594 10607 10619 10626 10633 10643 10656 10664 10668 10671 10672 10671 10670 10676 10678 10681 10683 10685 10689 10693 10698 10702 10707
10596 10590 10586 10578 10574 10570 10565 10556 10554 10545 10544 10538 10534 10529 10523 10520 10518 10516 10517 10521 10525 10531 10537 10548 10557 10570 10582 10592 10605 10613 10621 10630 10641 10649 10655 10656 10658 10659 10657 10659 10663 10664 10665 10671 10675 10679 10683 10687 10694
10586 10580 10575 10570 10564 10560 10555 10548 10546 10538 10531 10526 10522 10518 10513 10507 10506 10506 10504 10505 10509 10515 10519 10527 10539 10555 10566 10579 10587 10597 10605 10613 10625 10633 10638 10642 10645 10646 10647 10650 10647 10647 10653 10656 10660 10663 10669 10674 10679
10577 10570 10565 10561 10557 10548 10547 10538 10535 10527 10519 10514 10509 10505 10502 10497 10493 10493 10492 10491 10495 10499 10505 10512 10523 10537 10552 10564 10570 10581 10590 10597 10605 10615 10621 10628 10632 10632 10635 10634 10634 10634 10638 10644 10645 10649 10655 10661 10667
10566 10564 10556 10546 10544 10543 10532 10528 10520 10512 10511 10499 10496 10490 10487 10486 10481 10480 10478 10480 10480 10484 10489 10495 10505 10517 10533 10545 10553 10565 10574 10580 10588 10596 10604 10612 10617 10616 10618 10619 10618 10621 10625 10626 10627 10634 10639 10645 10654
10553 10547 10542 10533 10526 10530 10525 10518 10507 10500 10493 10487 10478 10476 10472 10471 10469 10467 10466 10465 10468 10470 10474 10479 10487 10500 10511 10524 10535 10546 10557 10565 10573 10579 10585 10593 10599 10602 10602 10605 10608 10611 10613 10614 10615 10618 10623 10630 10643
10541 10536 10527 10523 10517 10511 10509 10507 10495 10484 10477 10472 10464 10461 10457 10456 10455 10454 10454 10453 10453 10455 10460 10465 10470 10477 10490 10501 10513 10527 10540 10549 10557 10560 10567 10577 10582 10587 10589 10591 10596 10599 10602 10605 10606 10607 10610 10617 10628
10526 10521 10512 10507 10503 10496 10494 10498 10482 10470 10461 10453 10449 10443 10442 10440 10440 10441 10441 10440 10441 10441 10443 10450 10454 10461 10469 10478 10491 10505 10518 10529 10537 10546 10552 10559 10566 10572 10576 10578 10583 10589 10591 10594 10595 10598 10599 10604 10611
10514 10504 10497 10490 10486 10483 10473 10481 10472 10451 10449 10439 10436 10428 10426 10425 10424 10426 10426 10426 10427 10427 10428 10431 10437 10443 10451 10458 10468 10482 10495 10507 10517 10526 10534 10542 10547 10554 10560 10563 10568 10574 10578 10583 10585 10588 10591 10592 10600
10498 10489 10482 10476 10471 10467 10457 10448 10455 10433 10431 10425 10418 10413 10408 10408 10409 10409 10410 10410 10411 10412 10413 10414 10417 10424 10432 10440 10448 10459 10473 10486 10496 10504 10513 10521 10527 10539 10546 10548 10554 10559 10563 10569 10573 10576 10581 10583 10588
10478 10470 10464 10459 10453 10450 10444 10432 10434 10418 10408 10402 10406 10392 10392 10390 10390 10390 10391 10392 10393 10395 10397 10398 10400 10403 10411 10419 10427 10436 10448 10461 10472 10484 10493 10499 10508 10518 10526 10531 10537 10543 10548 10553 10559 10563 10568 10571 10575
10458 10448 10442 10442 10435 10434 10426 10417 10406 10392 10388 10379 10383 10376 10372 10373 10371 10370 10371 10373 10373 10375 10377 10380 10381 10384 10388 10396 10404 10413 10424 10437 10450 10460 10469 10480 10489 10498 10505 10511 10516 10523 10531 10538 10543 10548 10553 10557 10563
10446 10433 10417 10411 10409 10412 10402 10393 10386 10374 10360 10358 10354 10352 10349 10349 10350 10350 10349 10349 10351 10352 10354 10358 10361 10363 10367 10371 10382 10391 10400 10411 10425 10437 10447 10460 10464 10478 10486 10493 10501 10507 10513 10521 10527 10533 10537 10543 10550
10426 10416 10402 10386 10387 10376 10384 10378 10356 10346 10341 10333 10330 10328 10325 10322 10323 10324 10324 10322 10323 10325 10326 10329 10335 10339 10343 10349 10357 10368 10379 10388 10399 10410 10421 10436 10446 10458 10464 10471 10479 10487 10495 10503 10509 10516 10524 10529 10534
10404 10393 10378 10367 10356 10352 10359 10350 10327 10310 10309 10307 10304 10301 10299 10293 10292 10292 10293 10294 10293 10293 10297 10302 10306 10313 10319 10325 10331 10342 10352 10365 10375 10386 10397 10409 10421 10435 10442 10450 10459 10468 10475 10483 10491 10498 10507 10514 10521
10389 10374 10360 10347 10332 10311 10308 10336 10303 10285 10277 10278 10272 10270 10266 10262 10257 10258 10259 10261 10260 10264 10267 10273 10279 10285 10292 10301 10309 10317 10326 10335 10348 10360 10372 10384 10395 10407 10416 10426 10435 10445 10453 10463 10471 10481 10490 10497 10503
10369 10354 10334 10316 10320 10304 10272 10310 10273 10257 10249 10242 10240 10234 10229 10228 10225 10222 10224 10226 10230 10233 10237 10243 10252 10258 10266 10273 10283 10293 10303 10312 10323 10333 10343 10355 10367 10378 10389 10401 10410 10421 10431 10441 10450 10459 10470 10479 10487